Weather History for Yuma MCAS, AZ

Change the Weather History Date:

Wednesday, October 16, 2013

  Actual Average Record
Temperature  
Mean Temperature 75 °F 77 °F  
Max Temperature 85 °F 90 °F 106 °F (1958)
Min Temperature 64 °F 65 °F 47 °F (1899)
Degree Days  
Heating Degree Days 0 0  
Month to date heating degree days 0 0  
Since 1 July heating degree days 0 0  
Cooling Degree Days 10 12  
Month to date cooling degree days 187 245  
Year to date cooling degree days 4570 4419  
Growing Degree Days 24 (Base 50)    
Moisture  
Dew Point 24 °F    
Average Humidity 17    
Maximum Humidity 24    
Minimum Humidity 9    
Precipitation  
Precipitation 0.00 in 0.01 in 0.10 in (1949)
Month to date precipitation T 0.13  
Year to date precipitation 2.31 2.75  
Sea Level Pressure  
Sea Level Pressure 30.00 in    
Wind  
Wind Speed 8 mph (North)    
Max Wind Speed 20 mph    
Max Gust Speed 26 mph    
Visibility 10 miles    
Events      
T = Trace of Precipitation, MM = Missing Value Source: NWS Daily Summary

Daily Weather History Graph

Daily Weather History Graph

Search for Another Location

Airport:

Trip Planner

Search our weather history database for the weather conditions in past years. The results will help you decide how hot, cold, wet, or windy it might be!

Date:

Astronomy

Oct. 16, 2013 Rise Set
Actual Time 6:43 AM MST 6:03 PM MST
Civil Twilight 6:18 AM MST 6:28 PM MST
Nautical Twilight 5:49 AM MST 6:57 PM MST
Astronomical Twilight 5:21 AM MST 7:25 PM MST
Moon 4:40 PM MST (10/16) 4:22 AM MST (10/16)
Length of Visible Light 12h 10m
Length of Day
11h 20m
Waxing Gibbous, 94% of the Moon is Illuminated
Oct 16
Waxing Gibbous
Oct 18
Full
Oct 26
Last Quarter
Nov 3
New
Nov 9
First Quarter

Hourly Weather History & Observations

Time (MST) Temp. Dew Point Humidity Pressure Visibility Wind Dir Wind Speed Gust Speed Precip Events Conditions
12:57 AM 71.1 °F 25.0 °F 18% 29.96 in 10.0 mi North 8.1 mph - N/A   Clear
1:57 AM 68.0 °F 25.0 °F 20% 29.96 in 10.0 mi NNE 9.2 mph - N/A   Clear
2:57 AM 64.9 °F 27.0 °F 24% 29.97 in 10.0 mi WNW 3.5 mph - N/A   Clear
3:57 AM 66.0 °F 26.1 °F 22% 29.97 in 10.0 mi NE 5.8 mph - N/A   Clear
4:57 AM 68.0 °F 26.1 °F 21% 29.98 in 10.0 mi North 10.4 mph - N/A   Clear
5:57 AM 64.9 °F 26.1 °F 23% 30.00 in 10.0 mi NNE 9.2 mph - N/A   Clear
6:57 AM 66.0 °F 26.1 °F 22% 30.03 in 10.0 mi North 12.7 mph - N/A   Clear
7:57 AM 68.0 °F 26.1 °F 21% 30.06 in 10.0 mi North 10.4 mph - N/A   Clear
8:57 AM 72.0 °F 24.1 °F 17% 30.08 in 10.0 mi NNE 11.5 mph - N/A   Clear
9:57 AM 75.9 °F 23.0 °F 14% 30.07 in 10.0 mi North 15.0 mph 25.3 mph N/A   Clear
10:57 AM 79.0 °F 23.0 °F 13% 30.06 in 10.0 mi NNW 16.1 mph 23.0 mph N/A   Clear
11:57 AM 82.0 °F 21.9 °F 11% 30.05 in 10.0 mi North 11.5 mph - N/A   Clear
12:57 PM 84.0 °F 21.9 °F 10% 30.02 in 10.0 mi North 9.2 mph - N/A   Clear
1:57 PM 84.0 °F 21.0 °F 10% 30.01 in 10.0 mi NNE 12.7 mph 19.6 mph N/A   Clear
2:57 PM 84.9 °F 19.9 °F 9% 29.99 in 10.0 mi North 9.2 mph - N/A   Clear
3:57 PM 84.0 °F 19.9 °F 9% 29.98 in 10.0 mi North 8.1 mph - N/A   Clear
4:57 PM 84.0 °F 21.0 °F 10% 29.97 in 10.0 mi North 8.1 mph - N/A   Clear
5:57 PM 81.0 °F 21.9 °F 11% 29.97 in 10.0 mi North 5.8 mph - N/A   Clear
6:57 PM 77.0 °F 21.9 °F 13% 29.97 in 10.0 mi North 5.8 mph - N/A   Clear
7:57 PM 75.0 °F 24.1 °F 15% 29.98 in 10.0 mi NNW 4.6 mph - N/A   Clear
8:57 PM 73.9 °F 24.1 °F 16% 29.99 in 10.0 mi NNW 5.8 mph - N/A   Clear
9:57 PM 69.1 °F 28.9 °F 22% 29.99 in 10.0 mi West 5.8 mph - N/A   Clear
10:57 PM 66.9 °F 28.9 °F 24% 29.99 in 10.0 mi West 4.6 mph - N/A   Clear
11:57 PM 66.0 °F 28.9 °F 25% 29.99 in 10.0 mi Calm Calm - N/A   Clear